User: anonymous
Location: Wilsall
(45.9940°N, 110.6590°W)
Time: 14:01:57
(UTC-06:00)
Language:

GP-B - Orbit

View from above orbital plane
View from above orbital plane
View from above satellite
View from above satellite

Ground track
Ground track

The orbit data is extracted from the following two-line orbital elements,

1 28230U 04014A   14204.82316885  .00000210  00000-0  27225-4 0  1083
2 28230 089.8912 139.5011 0002398 091.2124 268.9373 14.77568054552608
Epoch (UTC): 23 July 2014 19:45:21
Eccentricity: 0.0002398
inclination: 89.8912°
perigee height: 635 km
apogee height: 638 km
right ascension of ascending node: 139.5011°
argument of perigee: 91.2124°
revolutions per day: 14.77568054
mean anomaly at epoch: 268.9373°
orbit number at epoch: 55260

The dashed part of the orbit path shows where the satellite is in the earth's shadow,  

DLR